Simultaneous Nadir Overpasses (SNOs) Predictions

Prediction of SNOs between AQUA and GOES-15 Satellite Orbit:

Table of predicted SNOs for the next 14.0 days since TLE Epoch: 1/28/2023
Index Date Time (AQUA) AQUA Lat,Lon GOES-15 Lat,Lon Distance(km) Time Diff (sec)
1 01/28/2023 10:16:08 -0.04,-127.97 0.03,-128.27 34.36 80
2 01/30/2023 10:02:56 -0.74,-124.76 0.04,-128.29 401.82 80
3 01/30/2023 22:24:04 -0.36,-129.88 -0.04,-128.25 184.05 80
4 02/01/2023 22:10:50 0.27,-126.64 -0.04,-128.26 182.99 80
5 02/02/2023 10:31:50 0.79,-131.74 0.04,-128.29 391.92 80
6 02/04/2023 10:18:36 0.11,-128.51 0.05,-128.29 24.99 80
7 02/06/2023 10:05:22 -0.61,-125.29 0.05,-128.29 341.98 80
8 02/06/2023 22:26:29 -0.51,-130.40 -0.05,-128.26 243.31 80
9 02/08/2023 22:13:14 0.20,-127.18 -0.05,-128.26 123.59 80
10 02/09/2023 10:34:12 0.88,-132.26 0.05,-128.28 452.00 80
11 02/10/2023 21:59:58 0.89,-123.94 -0.05,-128.25 490.35 80
